Location: Solon
(41.3849°N, 81.4081°W)
Time: 00:20:59
(UTC-04:00)

CZ-2C R/B - Visible Passes

Search period start: 05 August 2015 00:00
Search period end: 15 August 2015 00:00
Orbit: 703 x 910 km, 98.1° (Epoch: 04 August)

Date Brightness Start Highest point End Pass type
(mag) Time Alt. Az. Time Alt. Az. Time Alt. Az.
05 Aug 5.5 01:38:13 11° ENE 01:39:27 12° ENE 01:41:17 10° NE visible
05 Aug 2.9 03:19:18 71° NW 03:19:18 71° NW 03:23:38 10° NNW visible
06 Aug 3.3 02:54:24 57° ENE 02:54:24 57° ENE 02:58:51 10° N visible
06 Aug 4.8 04:35:29 14° WNW 04:35:29 14° WNW 04:37:02 10° WNW visible
07 Aug 4.2 02:29:32 34° ENE 02:29:33 34° ENE 02:33:51 10° N visible
07 Aug 4.3 04:10:37 23° WNW 04:10:37 23° WNW 04:13:26 10° NW visible
08 Aug 4.9 02:04:39 20° ENE 02:05:00 20° ENE 02:08:32 10° NNE visible
08 Aug 3.7 03:45:44 37° WNW 03:45:44 37° WNW 03:49:14 10° NNW visible
09 Aug 5.4 01:39:47 12° ENE 01:40:33 12° ENE 01:42:30 10° NE visible
09 Aug 3.2 03:20:51 57° NNW 03:20:51 57° NNW 03:24:43 10° NNW visible
10 Aug 3.5 02:55:58 54° NE 02:55:58 54° NE 02:59:57 10° N visible
10 Aug 4.9 04:37:03 12° WNW 04:37:03 12° WNW 04:37:55 10° WNW visible
11 Aug 4.2 02:31:06 34° ENE 02:31:06 34° ENE 02:34:58 10° N visible
11 Aug 4.5 04:12:10 20° WNW 04:12:10 20° WNW 04:14:27 10° NW visible
12 Aug 4.9 02:06:12 21° ENE 02:06:12 21° ENE 02:09:41 10° NNE visible
12 Aug 3.9 03:47:17 32° WNW 03:47:17 32° WNW 03:50:17 10° NNW visible
13 Aug 5.4 01:41:19 12° ENE 01:41:38 13° ENE 01:43:45 10° NE visible
13 Aug 3.6 03:22:24 46° NNW 03:22:24 46° NNW 03:25:47 10° NNW visible
14 Aug 3.7 02:57:31 47° NNE 02:57:31 47° NNE 03:01:03 10° N visible
14 Aug 5.1 04:38:35 10° WNW 04:38:35 10° WNW 04:38:47 10° WNW visible
